GW1859 Weather Reports


Display with metric or nautical units.
time (UTC)temp
F
wind
direction
speed
MPH
gust
MPH
rain 1hr
in
rain 24hr
in
rain mn
in
humidity
%
barometer
mb
20260903200510 102 201 2.0 4.0 0.00 0.00 0.00 33 1012.6
20260903200004 102 228 6.0 8.0 0.00 0.00 0.00 34 1012.7
20260903195501 102 121 5.0 5.0 0.00 0.00 0.00 34 1012.5
20260903194956 101 199 0.0 9.0 0.00 0.00 0.00 35 1012.6
20260903194451 101 3 1.0 6.0 0.00 0.00 0.00 35 1012.6
20260903193946 100 231 3.0 4.0 0.00 0.00 0.00 36 1012.6
20260903193443 101 104 3.0 7.0 0.00 0.00 0.00 35 1012.8
20260903192937 101 285 3.0 3.0 0.00 0.00 0.00 36 1012.9
20260903192434 100 175 2.0 5.0 0.00 0.00 0.00 36 1013.0
20260903191929 100 192 5.0 9.0 0.00 0.00 0.00 36 1013.0
20260903191426 100 93 2.0 4.0 0.00 0.00 0.00 35 1012.9
20260903190925 101 32 4.0 9.0 0.00 0.00 0.00 35 1013.1
20260903190419 100 181 1.0 3.0 0.00 0.00 0.00 36 1013.2
20260903185919 99 283 3.0 6.0 0.00 0.00 0.00 36 1013.2
20260903185414 99 29 2.0 8.0 0.00 0.00 0.00 37 1013.3
20260903184909 100 75 3.0 9.0 0.00 0.00 0.00 36 1013.4
20260903184407 99 37 0.0 4.0 0.00 0.00 0.00 37 1013.5
20260903183906 99 18 2.0 6.0 0.00 0.00 0.00 37 1013.3
20260903183401 98 66 6.0 7.0 0.00 0.00 0.00 38 1013.6
20260903182901 98 295 3.0 6.0 0.00 0.00 0.00 38 1013.6
20260903182359 98 237 7.0 7.0 0.00 0.00 0.00 38 1013.6
20260903181855 97 1 1.0 7.0 0.00 0.00 0.00 40 1014.0
20260903181355 97 328 2.0 5.0 0.00 0.00 0.00 38 1014.0
20260903180854 98 142 4.0 5.0 0.00 0.00 0.00 38 1014.1
20260903180349 97 98 3.0 5.0 0.00 0.00 0.00 40 1013.9
20260903175849 97 168 2.0 8.0 0.00 0.00 0.00 41 1014.0
20260903175349 97 182 4.0 7.0 0.00 0.00 0.00 40 1014.3
20260903174843 96 110 3.0 4.0 0.00 0.00 0.00 41 1014.2
20260903174339 95 164 5.0 6.0 0.00 0.00 0.00 42 1014.3
20260903173838 96 92 2.0 10.0 0.00 0.00 0.00 42 1014.6
20260903173334 95 130 1.0 8.0 0.00 0.00 0.00 43 1014.5
20260903172830 95 189 2.0 6.0 0.00 0.00 0.00 44 1014.8
20260903172324 95 151 2.0 7.0 0.00 0.00 0.00 43 1014.7
20260903171820 94 221 5.0 8.0 0.00 0.00 0.00 44 1014.7
20260903171315 93 277 1.0 9.0 0.00 0.00 0.00 46 1015.0
20260903170814 93 43 1.0 6.0 0.00 0.00 0.00 46 1015.0
20260903170309 94 185 7.0 9.0 0.00 0.00 0.00 44 1015.1
20260903165807 94 300 2.0 6.0 0.00 0.00 0.00 45 1014.9
20260903165305 93 10 1.0 5.0 0.00 0.00 0.00 46 1015.1
20260903164802 93 199 2.0 4.0 0.00 0.00 0.00 45 1015.2
20260903164258 93 242 4.0 6.0 0.00 0.00 0.00 46 1014.9
20260903163757 92 353 1.0 5.0 0.00 0.00 0.00 48 1015.0
20260903163254 91 297 1.0 4.0 0.00 0.00 0.00 49 1014.9
20260903162750 92 210 4.0 6.0 0.00 0.00 0.00 48 1014.9
20260903162246 91 255 0.0 8.0 0.00 0.00 0.00 50 1014.9
20260903161741 91 295 2.0 4.0 0.00 0.00 0.00 50 1015.2
20260903161237 91 127 2.0 5.0 0.00 0.00 0.00 49 1015.2
20260903160732 90 179 5.0 5.0 0.00 0.00 0.00 50 1015.3
20260903160231 89 213 4.0 6.0 0.00 0.00 0.00 51 1015.3
20260903155730 89 233 3.0 7.0 0.00 0.00 0.00 51 1015.2
20260903155225 88 5 1.0 6.0 0.00 0.00 0.00 53 1015.2
20260903154720 88 200 7.0 9.0 0.00 0.00 0.00 53 1015.4
20260903154216 89 210 5.0 8.0 0.00 0.00 0.00 51 1015.3
20260903153712 89 196 1.0 4.0 0.00 0.00 0.00 53 1015.2
20260903153208 88 342 2.0 3.0 0.00 0.00 0.00 53 1015.2
20260903152704 87 91 3.0 6.0 0.00 0.00 0.00 55 1015.2
20260903152200 87 224 0.0 5.0 0.00 0.00 0.00 56 1015.3
20260903151659 86 171 4.0 6.0 0.00 0.00 0.00 57 1015.5
20260903151155 86 135 1.0 7.0 0.00 0.00 0.00 57 1015.4
20260903150654 86 255 2.0 6.0 0.00 0.00 0.00 58 1015.3
20260903150150 85 212 4.0 5.0 0.00 0.00 0.00 58 1015.4
20260903145649 85 230 2.0 11.0 0.00 0.00 0.00 59 1015.3
20260903145145 85 341 2.0 6.0 0.00 0.00 0.00 59 1015.3
20260903144643 85 192 7.0 8.0 0.00 0.00 0.00 59 1015.5
20260903144139 85 26 2.0 6.0 0.00 0.00 0.00 59 1015.2
20260903143636 84 224 2.0 7.0 0.00 0.00 0.00 60 1015.4
20260903143131 83 257 4.0 6.0 0.00 0.00 0.00 61 1015.4
20260903142626 82 66 0.0 5.0 0.00 0.00 0.00 63 1015.4
20260903142123 82 35 1.0 8.0 0.00 0.00 0.00 64 1015.5
20260903141619 82 221 3.0 6.0 0.00 0.00 0.00 64 1015.4
20260903141113 82 257 0.0 9.0 0.00 0.00 0.00 65 1015.5
20260903140610 82 150 2.0 5.0 0.00 0.00 0.00 64 1015.5
20260903140104 82 187 5.0 5.0 0.00 0.00 0.00 64 1015.7
20260903135601 81 80 0.0 5.0 0.00 0.00 0.00 65 1015.4
20260903135100 81 210 1.0 5.0 0.00 0.00 0.00 65 1015.4
20260903134559 81 112 3.0 4.0 0.00 0.00 0.00 66 1015.5
20260903134055 80 351 0.0 8.0 0.00 0.00 0.00 66 1015.5
20260903133553 80 326 2.0 5.0 0.00 0.00 0.00 66 1015.4
20260903133049 80 110 3.0 4.0 0.00 0.00 0.00 66 1015.5
20260903132543 79 46 2.0 2.0 0.00 0.00 0.00 68 1015.5
20260903132038 78 240 3.0 4.0 0.00 0.00 0.00 69 1015.6
20260903131538 78 298 2.0 2.0 0.00 0.00 0.00 70 1015.4
20260903131037 77 39 1.0 3.0 0.00 0.00 0.00 70 1015.5
20260903130532 77 8 1.0 2.0 0.00 0.00 0.00 70 1015.5
20260903130033 77 187 1.0 4.0 0.00 0.00 0.00 70 1015.4
20260903125531 77 113 1.0 2.0 0.00 0.00 0.00 70 1015.4
20260903125026 77 309 0.0 2.0 0.00 0.00 0.00 71 1015.4
20260903124521 76 22 0.0 2.0 0.00 0.00 0.00 71 1015.4
20260903124021 76 244 1.0 3.0 0.00 0.00 0.00 71 1015.3
20260903123515 76 284 0.0 3.0 0.00 0.00 0.00 71 1015.4
20260903123014 76 195 2.0 4.0 0.00 0.00 0.00 72 1015.4
20260903122514 76 29 0.0 2.0 0.00 0.00 0.00 72 1015.3
20260903122013 76 0 1.0 2.0 0.00 0.00 0.00 72 1015.2
20260903121508 75 15 0.0 2.0 0.00 0.00 0.00 72 1015.2
20260903121004 75 348 0.0 4.0 0.00 0.00 0.00 72 1015.1
20260903120503 75 15 2.0 2.0 0.00 0.00 0.00 72 1015.1
20260903120003 75 2 1.0 2.0 0.00 0.00 0.00 71 1014.8
20260903115502 76 242 2.0 2.0 0.00 0.00 0.00 71 1014.8
20260903115001 76 357 0.0 2.0 0.00 0.00 0.00 71 1015.0
20260903114457 76 193 0.0 3.0 0.00 0.00 0.00 71 1014.8
20260903113953 75 225 0.0 3.0 0.00 0.00 0.00 71 1014.7
20260903113448 76 205 0.0 2.0 0.00 0.00 0.00 71 1014.9
20260903112944 76 107 0.0 2.0 0.00 0.00 0.00 71 1014.7
20260903112440 75 0 0.0 2.0 0.00 0.00 0.00 71 1014.9
20260903111939 75 316 1.0 1.0 0.00 0.00 0.00 71 1014.8
20260903111439 75 327 0.0 1.0 0.00 0.00 0.00 70 1014.8
20260903110935 76 297 0.0 2.0 0.00 0.00 0.00 70 1015.0
20260903110431 76 44 0.0 1.0 0.00 0.00 0.00 70 1015.1
20260903105925 76 269 0.0 1.0 0.00 0.00 0.00 69 1014.9
20260903105421 76 309 0.0 1.0 0.00 0.00 0.00 69 1014.6
20260903104920 76 247 1.0 1.0 0.00 0.00 0.00 69 1014.8
20260903104419 76 339 0.0 2.0 0.00 0.00 0.00 68 1015.1
20260903103917 76 338 0.0 2.0 0.00 0.00 0.00 68 1015.0
20260903103413 76 335 0.0 2.0 0.00 0.00 0.00 67 1015.1
20260903102908 77 291 0.0 2.0 0.00 0.00 0.00 67 1014.9
20260903102402 77 29 0.0 2.0 0.00 0.00 0.00 66 1015.2
20260903101902 77 15 0.0 1.0 0.00 0.00 0.00 66 1015.0
20260903101357 77 283 0.0 2.0 0.00 0.00 0.00 65 1015.0
20260903100852 78 350 0.0 2.0 0.00 0.00 0.00 65 1015.1
20260903100347 78 311 0.0 3.0 0.00 0.00 0.00 64 1015.0
20260903095845 78 329 1.0 2.0 0.00 0.00 0.00 64 1014.9
20260903095344 78 286 0.0 2.0 0.00 0.00 0.00 63 1015.2
20260903094840 78 219 0.0 2.0 0.00 0.00 0.00 63 1015.1
20260903094339 78 288 0.0 3.0 0.00 0.00 0.00 62 1015.0
20260903093835 79 357 0.0 2.0 0.00 0.00 0.00 62 1015.0
20260903093330 79 357 0.0 3.0 0.00 0.00 0.00 61 1014.8
20260903092826 79 49 0.0 2.0 0.00 0.00 0.00 61 1014.8
20260903092320 79 315 0.0 4.0 0.00 0.00 0.00 61 1014.9
20260903091819 79 286 0.0 2.0 0.00 0.00 0.00 60 1014.8
20260903091313 79 296 0.0 3.0 0.00 0.00 0.00 60 1014.8
20260903090809 79 299 1.0 3.0 0.00 0.00 0.00 60 1014.8
20260903090308 79 336 0.0 2.0 0.00 0.00 0.00 60 1014.8
20260903085807 79 98 0.0 3.0 0.00 0.00 0.00 60 1014.8
20260903085305 79 289 0.0 3.0 0.00 0.00 0.00 60 1014.8
20260903084800 79 333 0.0 2.0 0.00 0.00 0.00 59 1014.8
20260903084300 80 22 0.0 2.0 0.00 0.00 0.00 58 1014.7
20260903083755 80 342 2.0 2.0 0.00 0.00 0.00 58 1014.7
20260903083250 80 255 2.0 2.0 0.00 0.00 0.00 58 1014.5
20260903082749 80 157 2.0 4.0 0.00 0.00 0.00 58 1014.7
20260903082245 80 283 0.0 2.0 0.00 0.00 0.00 57 1014.2
20260903081745 80 171 2.0 2.0 0.00 0.00 0.00 57 1014.6
20260903081241 80 305 1.0 3.0 0.00 0.00 0.00 56 1014.6
20260903080737 80 294 1.0 2.0 0.00 0.00 0.00 56 1014.6
20260903080234 80 243 2.0 5.0 0.00 0.00 0.00 56 1014.6
20260903075734 80 351 0.0 3.0 0.00 0.00 0.00 56 1014.2
20260903075229 80 267 3.0 4.0 0.00 0.00 0.00 56 1014.5
20260903074728 80 68 1.0 3.0 0.00 0.00 0.00 56 1014.3
20260903074223 80 358 0.0 2.0 0.00 0.00 0.00 56 1014.5
20260903073719 80 28 0.0 2.0 0.00 0.00 0.00 55 1014.7
20260903073219 81 47 1.0 2.0 0.00 0.00 0.00 55 1014.7
20260903072715 81 18 0.0 4.0 0.00 0.00 0.00 55 1014.3
20260903072211 81 320 1.0 2.0 0.00 0.00 0.00 54 1014.6
20260903071707 81 260 1.0 2.0 0.00 0.00 0.00 54 1014.3
20260903071203 81 300 2.0 2.0 0.00 0.00 0.00 54 1014.6
20260903070702 81 358 1.0 2.0 0.00 0.00 0.00 54 1014.5
20260903070158 82 118 0.0 2.0 0.00 0.00 0.00 53 1014.6
20260903065653 82 31 1.0 3.0 0.00 0.00 0.00 53 1014.5
20260903065153 82 193 0.0 3.0 0.00 0.00 0.00 53 1014.5
20260903064652 82 256 0.0 2.0 0.00 0.00 0.00 53 1014.3
20260903064148 82 300 0.0 2.0 0.00 0.00 0.00 52 1014.3
20260903063643 82 357 2.0 6.0 0.00 0.00 0.00 52 1014.3
20260903063138 82 94 1.0 2.0 0.00 0.00 0.00 52 1014.2
20260903062634 82 46 1.0 2.0 0.00 0.00 0.00 52 1014.1
20260903062129 82 322 0.0 3.0 0.00 0.00 0.00 52 1014.2
20260903061624 82 6 2.0 2.0 0.00 0.00 0.00 51 1014.2
20260903061123 82 70 0.0 2.0 0.00 0.00 0.00 51 1014.2
20260903060618 82 355 0.0 2.0 0.00 0.00 0.00 51 1014.1
20260903060114 82 28 1.0 2.0 0.00 0.00 0.00 51 1014.1
20260903055611 82 333 0.0 2.0 0.00 0.00 0.00 51 1014.1
20260903055109 83 16 1.0 3.0 0.00 0.00 0.00 50 1014.3
20260903054604 83 321 1.0 2.0 0.00 0.00 0.00 50 1014.1
20260903054101 83 25 0.0 1.0 0.00 0.00 0.00 50 1014.3
20260903053556 83 8 1.0 2.0 0.00 0.00 0.00 50 1014.1
20260903053052 83 29 0.0 2.0 0.00 0.00 0.00 50 1014.2
20260903052548 83 64 2.0 2.0 0.00 0.00 0.00 49 1014.3
20260903052043 83 354 0.0 2.0 0.00 0.00 0.00 49 1014.1
20260903051542 83 11 1.0 2.0 0.00 0.00 0.00 49 1014.0
20260903051038 83 48 1.0 2.0 0.00 0.00 0.00 49 1014.2
20260903050537 83 343 0.0 2.0 0.00 0.00 0.00 49 1014.2
20260903050033 83 45 0.0 1.0 0.00 0.00 0.00 49 1014.2
20260903045532 83 44 0.0 1.0 0.00 0.00 0.00 49 1014.2
20260903045029 83 51 1.0 2.0 0.00 0.00 0.00 49 1014.0
20260903044525 84 36 0.0 2.0 0.00 0.00 0.00 48 1014.0
20260903044020 84 355 0.0 2.0 0.00 0.00 0.00 48 1014.2
20260903043516 84 339 0.0 1.0 0.00 0.00 0.00 48 1014.0
20260903043015 84 80 0.0 2.0 0.00 0.00 0.00 48 1014.0
20260903042510 85 7 0.0 2.0 0.00 0.00 0.00 47 1014.2
20260903042006 85 319 0.0 2.0 0.00 0.00 0.00 47 1013.9
20260903041502 85 22 0.0 1.0 0.00 0.00 0.00 47 1014.2
20260903040957 85 322 0.0 1.0 0.00 0.00 0.00 46 1014.3
20260903040456 85 84 0.0 2.0 0.00 0.00 0.00 46 1014.2
20260903035953 86 46 2.0 2.0 0.00 0.00 0.00 46 1014.1
20260903035448 86 44 2.0 2.0 0.00 0.00 0.00 46 1014.1
20260903034943 86 55 1.0 2.0 0.00 0.00 0.00 46 1014.2
20260903034438 86 32 0.0 1.0 0.00 0.00 0.00 46 1014.3
20260903033933 86 315 0.0 2.0 0.00 0.00 0.00 46 1013.9
20260903033428 86 333 0.0 1.0 0.00 0.00 0.00 46 1014.1
20260903032929 86 347 0.0 2.0 0.00 0.00 0.00 46 1013.9
20260903032424 87 75 0.0 2.0 0.00 0.00 0.00 46 1014.0
20260903031919 87 41 1.0 2.0 0.00 0.00 0.00 45 1014.1
20260903031419 87 67 0.0 2.0 0.00 0.00 0.00 45 1014.1
20260903030914 87 315 0.0 2.0 0.00 0.00 0.00 45 1014.1
20260903030410 87 55 0.0 2.0 0.00 0.00 0.00 45 1014.0
20260903025906 87 35 2.0 2.0 0.00 0.00 0.00 45 1013.9
20260903025401 87 333 1.0 2.0 0.00 0.00 0.00 45 1013.9
20260903024856 87 28 1.0 2.0 0.00 0.00 0.00 45 1014.0
20260903024356 87 67 1.0 2.0 0.00 0.00 0.00 45 1014.1
20260903023851 87 24 0.0 2.0 0.00 0.00 0.00 45 1013.7
20260903023347 87 60 1.0 2.0 0.00 0.00 0.00 44 1013.6
20260903022841 88 83 1.0 2.0 0.00 0.00 0.00 44 1013.7
20260903022341 88 74 2.0 2.0 0.00 0.00 0.00 44 1013.6
20260903021839 88 15 0.0 2.0 0.00 0.00 0.00 44 1013.8
20260903021336 88 38 1.0 2.0 0.00 0.00 0.00 43 1013.6
20260903020835 89 338 0.0 2.0 0.00 0.00 0.00 43 1013.4
20260903020330 89 311 0.0 2.0 0.00 0.00 0.00 43 1013.3
20260903015825 89 38 0.0 2.0 0.00 0.00 0.00 43 1013.3
20260903015321 89 25 0.0 2.0 0.00 0.00 0.00 42 1013.3
20260903014816 89 357 0.0 2.0 0.00 0.00 0.00 42 1013.3
20260903014316 90 6 0.0 2.0 0.00 0.00 0.00 42 1013.0
20260903013811 90 203 0.0 2.0 0.00 0.00 0.00 42 1013.3
20260903013310 90 50 0.0 2.0 0.00 0.00 0.00 41 1013.1
20260903012809 91 345 0.0 2.0 0.00 0.00 0.00 41 1013.2
20260903012306 91 315 0.0 2.0 0.00 0.00 0.00 40 1013.0
20260903011803 92 72 0.0 2.0 0.00 0.00 0.00 40 1012.9
20260903011302 92 345 0.0 2.0 0.00 0.00 0.00 40 1013.0
20260903010758 92 219 1.0 2.0 0.00 0.00 0.00 39 1012.9
20260903010254 92 344 1.0 2.0 0.00 0.00 0.00 39 1012.9
20260903005752 93 110 0.0 2.0 0.00 0.00 0.00 38 1012.8
20260903005247 93 336 2.0 2.0 0.00 0.00 0.00 38 1012.8
20260903004742 94 320 0.0 2.0 0.00 0.00 0.00 37 1013.0
20260903004238 94 57 2.0 4.0 0.00 0.00 0.00 36 1012.9
20260903003733 95 9 2.0 4.0 0.00 0.00 0.00 36 1012.8
20260903003228 95 96 2.0 3.0 0.00 0.00 0.00 35 1012.9
20260903002723 96 79 3.0 3.0 0.00 0.00 0.00 34 1013.0
20260903002217 97 62 1.0 5.0 0.00 0.00 0.00 33 1013.0
20260903001713 97 26 3.0 3.0 0.00 0.00 0.00 33 1013.1
20260903001212 97 61 1.0 2.0 0.00 0.00 0.00 33 1013.1
20260903000708 98 38 2.0 3.0 0.00 0.00 0.00 33 1012.6
20260903000207 99 53 1.0 3.0 0.00 0.00 0.00 31 1012.9
20260902235706 100 13 2.0 3.0 0.00 0.00 0.00 31 1013.0
20260902235201 100 121 2.0 2.0 0.00 0.00 0.00 30 1012.8
20260902234701 101 356 0.0 3.0 0.00 0.00 0.00 29 1012.9
20260902234159 101 0 2.0 2.0 0.00 0.00 0.00 29 1012.9
20260902233654 102 345 2.0 4.0 0.00 0.00 0.00 29 1013.0
20260902233154 101 318 0.0 3.0 0.00 0.00 0.00 28 1013.0
20260902232653 102 4 0.0 3.0 0.00 0.00 0.00 28 1013.1
20260902232153 102 230 2.0 3.0 0.00 0.00 0.00 27 1013.0
20260902231647 102 19 1.0 4.0 0.00 0.00 0.00 27 1013.2
20260902231142 102 256 1.0 6.0 0.00 0.00 0.00 27 1013.0
20260902230637 103 128 3.0 5.0 0.00 0.00 0.00 26 1013.0
20260902230136 103 40 1.0 4.0 0.00 0.00 0.00 27 1013.0
20260902225631 103 297 3.0 10.0 0.00 0.00 0.00 26 1013.0
20260902225130 104 165 4.0 5.0 0.00 0.00 0.00 26 1012.8
20260902224629 103 26 1.0 5.0 0.00 0.00 0.00 26 1012.9
20260902224125 104 108 0.0 4.0 0.00 0.00 0.00 26 1012.9
20260902223621 103 316 2.0 6.0 0.00 0.00 0.00 26 1012.9
20260902223120 104 280 4.0 7.0 0.00 0.00 0.00 26 1012.9
20260902222619 103 54 2.0 3.0 0.00 0.00 0.00 26 1013.1
20260902222119 103 94 2.0 6.0 0.00 0.00 0.00 27 1013.3
20260902221613 103 73 2.0 5.0 0.00 0.00 0.00 26 1013.2
20260902221108 104 35 3.0 5.0 0.00 0.00 0.00 26 1013.2
20260902220604 104 37 2.0 5.0 0.00 0.00 0.00 26 1013.2
20260902220058 103 216 0.0 6.0 0.00 0.00 0.00 27 1013.2
20260902215554 104 91 2.0 6.0 0.00 0.00 0.00 26 1013.3
20260902215050 104 344 2.0 6.0 0.00 0.00 0.00 27 1013.5
20260902214549 105 193 5.0 6.0 0.00 0.00 0.00 26 1013.5
20260902214049 105 358 2.0 3.0 0.00 0.00 0.00 26 1013.5
20260902213544 105 49 4.0 5.0 0.00 0.00 0.00 26 1013.7
20260902213044 105 200 2.0 4.0 0.00 0.00 0.00 26 1013.5
20260902212539 105 195 2.0 3.0 0.00 0.00 0.00 26 1013.6
20260902212035 104 112 2.0 6.0 0.00 0.00 0.00 27 1013.6
20260902211532 105 220 3.0 5.0 0.00 0.00 0.00 26 1013.7
20260902211026 104 347 2.0 3.0 0.00 0.00 0.00 27 1013.8
20260902210526 105 295 2.0 3.0 0.00 0.00 0.00 27 1013.9
20260902210026 105 63 6.0 6.0 0.00 0.00 0.00 26 1013.9
20260902205520 104 308 1.0 4.0 0.00 0.00 0.00 27 1014.1
20260902205016 103 180 4.0 6.0 0.00 0.00 0.00 27 1014.1
20260902204515 104 250 2.0 6.0 0.00 0.00 0.00 27 1014.2
20260902204010 104 331 2.0 7.0 0.00 0.00 0.00 28 1014.2
20260902203506 104 79 2.0 6.0 0.00 0.00 0.00 27 1014.3
20260902203004 103 49 0.0 5.0 0.00 0.00 0.00 29 1014.2
20260902202501 102 84 0.0 4.0 0.00 0.00 0.00 29 1014.6
20260902201957 103 54 1.0 7.0 0.00 0.00 0.00 28 1014.5
20260902201457 103 125 2.0 7.0 0.00 0.00 0.00 29 1014.5
20260902200952 103 176 1.0 5.0 0.00 0.00 0.00 29 1014.7